Showing default

ANGELS, 44876

Orbit data source: Space-Track

ANGELS, 44876 is a payload satellite owned by CNES (FR) in LEO that was launched on Wed, 18 Dec 2019 UTC via a SOYUZ-ST-A launch vehicle from the French Guiana (FRGUI). Payloads include a variety of satellites, spacecraft, and rockets equipped with specific instruments for various scientific and technological missions. These include communications satellites like Starlink; space stations such as the ISS; scientific satellites like the Hubble; Earth observation satellites from companies like Planet Labs, Umbra, and HawkEye 360; GPS; miniature CubeSats for education and research; and military/defense satellites.

Loading next visibility...
ANGELS details
Identifier
44876, 2019-092D
Orbit
LEO
Last TLE update8 hours ago
Origin
Flag of FRCNES (FR)
ManufacturerHemeria
MissionOperational Civil Communications
Bus & MotorCUBESAT 12U, Unknown motor
Mass27 kg wet, 27 kg dry
Launch date (UTC)
2019-12-18 (5 years ago)
Launch vehicle
SOYUZ-ST-A
Launch site
French Guiana (FRGUI)
Object type
Payload
Rocket body
Debris
Shape & HBRBox + 2 Pan, Unknown HBR
Radar Cross Section0.126 m², Medium (>0.1 m² and < 1m²)

Expand to show TLE details & history

TLE from 8 hours ago
0 ANGELS
1 44876U 19092D   24348.80872602  .00011436  00000-0  36835-3 0  9997
2 44876  97.4632 178.1980 0009930  48.1222 312.0865 15.32317218276818
Epoch: 2024-12-13T19:24Z
Definitive object data (Epoch: 2024-12-13T19:24:33.928Z)
Latitude-0.00003°
Longitude164.08725°
Altitude467.452 km
Speed7.635 km/s
True Right ascension11h 52m 47s
True Declination0° 00' 00"
Sunlit
Object was in daylight at TLE epoch
Visualization TLE readout
Latitude77.34023°
Longitude128.98224°
Altitude476.26 km
Speed7.638 km/s
Apparent Right ascension13h 10m 15s
Apparent Declination24° 47' 30"
Sunlit
Object is in full shadow
Visualization observer readout
Local Sidereal Time02:08:14
Azimuth14.391° NNE
Elevation-23.896°
Doppler factor1
Orbital elements
Apogee altitude472.649 km
Perigee altitude459.057 km
Semi-major axis6,843.99 km
Eccentricity0.000993
Inclination97.4632°
RAAN178.198°
Arg. of periapsis48.1222°
True anomaly312.00198°
Mean anomaly312.0865°
Eccentric anomaly312.04425°
Mean motion3.83336 °/min
BSTAR0.00036835
Orbital period93.91 mins
Loading maneuver chart data...
Loading historical data...
Loading historical data...
Loading historical data...
Loading historical data...
Loading historical data...
Loading historical data...
Loading historical data...

ANGELS Visibility forecast

Observer location: undefined°, undefined

Span
Click to sort rows by Start time (UTC) header in descending order
Start Az.
Max El. time (UTC)
Max El. Az.
Max El.
End time (UTC)
End Az.
6 mins2024-12-14 12:46:29.101Z159.744° S2024-12-14 12:49:29.101Z81.441° E43.476°2024-12-14 12:52:29.101Z353.195° N
5 mins2024-12-15 01:45:29.101Z11.024° NNE2024-12-15 01:47:29.101Z352.591° N44.714°2024-12-15 01:50:29.101Z194.112° SSW
|